Regional Weather Roundup
Issued by NWS

Home | Current Version | Previous Version | Text Only | Print | Product List | Glossary On
Versions: 1 2 3 4 5 6 7 8 9 10 11 12 13 14 15 16 17 18 19 20 21 22 23 24 25 26 27 28 29 30 31 32 33 34 35 36 37 38 39 40 41 42 43 44 45 46 47 48 49 50
000
ASUS45 KBOI 261110
RWRID
WEATHER ROUNDUP FOR IDAHO
NATIONAL WEATHER SERVICE BOISE ID
500 AM MDT SAT JUL 26 2014

NOTE: "FAIR" INDICATES FEW OR NO CLOUDS BELOW 12000 FEET
WITH NO SIGNIFICANT WEATHER AND/OR OBSTRUCTIONS TO VISIBILITY

IDZ012-014-261200-
SOUTHWEST IDAHO


CITY           SKY/WX    TMP DP  RH WIND       PRES   REMARKS
BOISE          CLEAR     59  33  37 SE5       30.07R
CALDWELL       CLEAR     59  37  44 NW8       30.08R
MOUNTAIN HOME  CLEAR     54  30  40 E1        30.08R
$$

IDZ016-017-261200-
SOUTHCENTRAL IDAHO


CITY           SKY/WX    TMP DP  RH WIND       PRES   REMARKS
BURLEY         CLEAR     51  36  56 SW8       30.12R
JEROME         CLEAR     59  30  33 SW5       30.12R
TWIN FALLS     CLEAR     63  26  24 S10       30.12R
$$

IDZ019>023-261200-
SOUTHEAST IDAHO


CITY           SKY/WX    TMP DP  RH WIND       PRES   REMARKS
IDAHO FALLS    CLEAR     53  40  61 SW6       30.16R
POCATELLO      CLEAR     59  28  30 SW9       30.15R
REXBURG        CLEAR     49  38  65 E3        30.16R
$$

IDZ006-010-011-018-031-032-261200-
CENTRAL IDAHO MOUNTAINS


CITY           SKY/WX    TMP DP  RH WIND       PRES   REMARKS
MCCALL         CLEAR     46  36  68 SE3       30.18R
HAILEY         CLEAR     50  27  40 W12       30.20R
STANLEY          N/A     32  22  66 S5        30.30R WCI  27
SALMON         CLEAR     48  36  61 CALM      30.17R
CHALLIS        CLEAR     47  30  51 NW5       30.21R
$$

IDZ002-004-006-007-026-261200-
NORTHERN IDAHO


CITY           SKY/WX    TMP DP  RH WIND       PRES   REMARKS
LEWISTON       CLEAR     61  43  51 E3        30.07R
LOWELL           N/A     52  46  80 N3        30.15R
COEUR D`ALENE  CLEAR     50  45  81 E5        30.11R
MULLAN PASS    CLEAR     50  37  61 NW3       30.23S
$$



USA.gov is the U.S. government's official web portal to all federal, state and local government web resources and services.